RH
19 23 28 29 31 37 38 35 35 34 37 60 87 94 92 99 101 86 67 63 73 77 75 72 66 60 55 50 44 42 43 46 49 50 53 54 56 54 56 71 88 92 84 71 58 41 28 22 20 27 33 29 26 28 30 30 31 36 51 75 87 75 59 46 30 17 13 15 13 12 16 24 31 37 43 45 47 46 44 42 41 43 48 58 64 72 88 99 98 83 74 79 77 76 80 74 78
17 19 23 27 29 32 39 36 31 38 35 47 89 102 84 78 86 88 68 51 59 69 72 68 62 54 46 43 42 44 47 52 56 57 58 53 49 55 70 88 96 90 80 68 49 27 18 17 24 36 35 30 30 32 30 29 32 34 45 58 55 40 29 19 13 14 16 14 11 13 15 18 21 26 29 31 32 32 32 32 30 31 32 35 35 42 64 87 100 97 88 90 90 88 88 81 85
18 18 18 22 26 26 37 50 53 50 41 41 74 98 89 76 69 68 64 55 55 62 68 64 54 49 46 44 44 48 54 59 63 64 61 53 54 67 83 91 89 86 81 65 40 20 14 18 32 39 32 31 36 38 35 32 32 32 37 38 28 19 13 11 15 17 14 13 13 13 12 13 15 18 20 20 21 20 20 20 20 20 19 20 21 22 32 52 77 98 104 100 98 99 99 94 98
21 18 18 18 20 32 34 42 72 81 58 35 43 69 89 96 86 74 70 65 68 75 70 57 50 54 56 55 54 54 60 68 71 69 62 60 69 81 84 76 74 82 78 54 29 15 15 22 34 35 31 36 41 43 38 33 32 32 29 21 13 9 11 17 19 15 13 15 14 13 12 14 16 20 22 23 23 23 23 23 23 21 21 19 16 16 18 24 36 63 90 100 102 101 101 101 105
24 22 21 19 18 45 51 32 48 71 61 41 35 43 62 82 92 95 91 86 89 88 75 71 75 77 72 70 71 68 74 78 72 66 64 70 77 75 66 60 69 74 59 34 19 16 17 23 31 34 36 40 40 40 35 30 30 26 17 8 7 11 19 21 16 14 16 16 15 13 14 16 20 25 28 31 33 33 32 29 28 27 26 21 15 14 15 17 18 25 45 70 91 100 102 102 104
27 26 24 24 22 36 49 42 35 38 38 36 36 35 37 44 62 81 89 96 91 74 69 79 87 91 93 92 91 93 94 79 62 57 59 64 60 52 50 56 60 50 30 18 17 18 19 25 33 37 39 37 34 32 29 26 24 15 6 5 11 18 23 19 16 17 17 17 16 15 16 20 27 35 40 42 43 42 40 37 36 37 33 23 16 17 17 16 17 18 20 33 56 86 102 100 103
29 30 27 25 26 27 30 36 36 34 34 33 33 33 30 30 52 74 76 77 63 45 51 65 72 81 95 101 102 101 87 59 43 42 46 47 44 44 45 45 38 24 15 15 19 20 21 29 35 37 36 33 29 26 24 21 14 5 4 11 17 23 23 19 19 18 19 19 18 17 20 29 39 45 46 44 43 44 43 40 40 41 33 21 17 19 19 17 17 18 20 23 32 68 103 103 101
30 31 32 28 26 28 29 31 35 40 40 35 33 32 30 27 43 64 64 54 38 30 40 64 86 93 100 104 98 81 54 33 26 28 34 41 46 44 37 33 25 14 13 16 19 19 22 30 35 35 34 31 27 23 20 14 6 4 10 16 21 24 24 22 22 20 20 21 20 20 25 38 45 43 40 38 38 37 39 41 42 41 29 19 20 19 18 17 18 19 23 30 32 53 89 102 100
29 31 32 32 31 31 33 33 34 38 37 33 31 30 32 28 29 37 40 35 28 27 30 54 84 95 98 99 94 68 36 23 21 22 30 47 53 41 32 28 18 11 14 17 18 18 23 32 36 34 31 27 23 19 13 6 4 9 16 18 21 26 28 27 23 21 22 25 23 22 31 41 41 35 34 36 34 31 33 39 44 38 25 19 21 20 18 18 19 22 26 35 42 47 62 79 83
25 28 29 31 32 33 34 33 31 30 30 30 30 29 29 30 29 29 28 27 26 26 25 37 53 61 64 70 78 61 31 20 22 28 43 62 56 36 30 21 12 14 16 17 17 19 28 34 33 29 27 24 19 13 5 4 9 14 17 17 21 29 33 28 22 22 25 26 24 26 35 39 35 31 33 34 32 30 30 40 45 32 21 21 22 20 18 19 22 26 26 27 34 39 47 59 62
24 24 26 27 28 30 31 32 31 30 30 29 29 29 29 29 29 27 26 26 26 25 24 28 31 33 35 41 48 36 21 23 33 44 58 69 53 36 31 17 13 17 17 17 17 22 28 27 24 24 23 19 13 6 5 9 14 15 17 18 23 31 31 24 21 24 27 27 25 27 34 36 32 31 33 33 30 29 34 46 42 25 20 23 22 20 19 20 23 28 28 24 22 27 42 58 65
21 22 23 23 23 25 26 28 29 29 29 29 28 27 28 28 27 26 26 25 24 24 24 23 23 25 27 28 24 19 21 33 50 57 56 53 44 42 36 16 14 18 16 16 18 22 20 15 17 21 19 13 7 5 9 13 14 16 18 19 23 27 23 20 23 26 28 28 25 28 34 34 31 32 32 31 30 33 44 49 33 20 23 23 21 21 21 21 22 26 28 27 25 29 38 47 57
17 19 20 20 20 21 22 23 25 26 26 26 26 25 25 25 25 24 24 24 24 23 23 22 22 23 23 20 16 17 26 43 59 63 55 44 40 50 43 18 15 17 14 14 18 16 10 11 16 16 12 7 7 9 12 14 15 17 18 19 21 21 20 22 26 29 28 26 25 29 32 31 32 32 31 33 37 43 51 41 23 22 24 22 23 22 22 21 21 24 27 27 28 31 32 30 32
12 14 16 17 18 19 19 19 19 20 21 21 21 21 22 22 23 23 23 22 22 22 21 20 19 17 16 13 13 18 33 49 57 61 61 55 51 56 45 24 17 13 12 15 15 10 8 12 13 10 7 7 9 11 14 15 17 18 18 19 20 20 22 26 28 29 27 24 25 28 30 32 32 29 30 35 40 45 44 28 20 25 23 22 24 26 26 24 23 23 25 27 28 30 29 28 28
8 10 11 13 15 16 16 17 17 17 17 18 18 18 19 19 20 20 20 20 19 18 17 15 13 12 11 10 14 27 44 55 58 60 63 63 59 54 43 29 18 11 13 15 10 7 9 10 9 7 8 9 11 13 15 16 17 18 19 20 22 23 24 26 27 27 25 24 25 28 31 31 28 25 26 29 30 31 27 20 23 24 22 24 26 28 30 29 29 27 26 25 25 27 27 28 28
7 7 8 9 10 12 13 13 13 14 14 14 15 15 16 16 17 17 17 17 16 14 13 11 11 9 8 13 25 44 59 65 64 60 58 57 53 48 40 29 16 12 15 12 8 8 8 7 8 8 10 10 12 15 16 16 18 19 21 22 23 24 24 24 25 26 26 27 29 31 31 27 23 23 24 23 23 21 17 20 25 23 23 26 28 30 32 32 33 33 33 31 30 28 27 28 27
10 8 7 7 7 8 9 10 10 11 11 12 12 13 13 13 14 14 14 13 12 11 10 9 8 9 16 30 47 63 72 73 67 59 54 49 43 39 34 24 14 14 15 8 8 8 7 7 8 9 10 11 14 16 16 18 20 21 23 24 25 27 28 28 28 29 29 31 31 30 26 23 23 23 24 24 21 17 16 21 25 24 26 28 30 32 33 35 36 36 37 36 37 36 35 33 32
17 15 11 8 7 7 7 7 8 8 9 9 10 11 11 12 12 12 12 11 10 8 8 8 10 18 35 56 72 79 79 75 68 60 51 42 35 31 26 19 14 17 13 6 8 7 6 8 9 10 10 13 16 16 17 19 21 23 26 27 30 31 31 32 31 31 32 31 29 26 24 24 24 23 24 24 18 15 17 22 26 26 28 30 33 35 36 37 37 39 40 40 40 40 41 41 39
15 17 17 13 9 7 7 7 7 8 8 8 9 9 9 9 9 9 8 8 8 8 8 8 14 31 56 78 89 90 85 78 70 59 47 36 27 23 20 15 16 19 9 4 7 6 7 9 9 10 12 16 17 16 18 21 24 28 30 33 35 34 32 32 30 30 30 29 27 26 26 24 24 23 24 21 15 17 20 22 26 28 29 32 34 37 38 40 40 41 42 42 42 41 42 44 45
18 13 12 13 13 10 8 7 7 7 7 7 8 8 8 8 8 8 8 9 8 8 7 11 25 51 76 91 97 97 90 81 70 58 43 30 21 19 17 14 20 18 5 3 6 7 10 10 10 12 15 18 17 18 20 24 29 31 33 34 34 32 30 29 28 28 28 28 29 28 26 24 24 24 23 18 14 20 27 26 27 30 29 31 34 37 39 41 42 43 44 44 44 44 43 43 45
26 22 15 9 9 10 9 8 8 8 8 8 8 8 8 7 7 7 6 6 8 13 24 43 64 81 92 99 103 102 94 82 68 54 39 24 18 17 15 17 21 13 3 4 7 9 10 10 11 14 17 18 17 20 24 27 28 28 28 29 30 30 29 29 29 28 28 29 30 28 25 25 25 24 21 15 13 22 31 30 30 32 32 32 32 34 36 39 41 42 44 46 47 47 46 44 44
18 24 24 17 11 9 8 7 7 7 7 7 7 7 8 7 9 11 13 18 25 39 59 81 96 100 101 101 101 98 89 78 65 50 33 19 16 16 16 21 18 7 3 5 8 10 11 11 13 16 19 17 18 23 25 24 22 23 24 27 30 30 29 28 27 26 28 28 27 26 25 27 26 23 18 16 16 20 31 37 35 34 37 39 36 33 33 34 38 40 43 46 49 51 51 49 47
10 13 18 21 20 18 16 14 13 13 14 15 16 15 15 15 16 17 19 21 24 33 48 64 74 77 79 81 83 79 72 67 60 44 25 16 17 17 20 22 12 4 5 7 9 11 12 12 14 18 18 17 21 24 22 21 20 22 23 26 27 26 26 25 24 25 27 26 25 25 27 28 25 20 16 18 24 24 26 33 34 33 40 45 42 37 34 33 33 35 40 42 46 51 53 55 54
13 11 11 13 15 17 18 18 18 19 18 19 18 16 14 12 10 10 9 8 8 9 14 24 36 49 62 72 73 67 64 63 53 33 18 17 18 20 24 19 8 5 8 9 11 12 12 13 17 18 18 20 23 22 21 20 20 21 21 23 22 21 22 22 24 25 26 26 25 26 27 26 20 16 15 19 31 36 31 31 33 36 44 46 42 37 33 31 31 32 34 37 46 52 52 56 59
15 14 12 11 10 11 11 12 12 12 12 11 10 8 8 7 6 7 6 6 6 5 8 15 31 54 73 77 71 67 68 61 41 23 18 19 20 25 25 14 8 10 12 11 12 12 12 14 18 17 18 22 22 20 19 19 19 19 19 19 19 20 21 23 25 27 27 26 26 27 26 22 16 13 14 16 24 33 34 32 32 33 34 31 32 37 39 36 33 34 35 37 45 50 49 54 57
15 15 14 12 12 11 10 10 10 11 11 10 10 9 9 8 8 8 7 7 6 7 8 14 37 62 75 76 69 66 63 47 29 22 21 21 24 29 23 13 13 16 14 13 13 12 12 17 18 17 20 22 20 19 18 18 19 18 18 18 19 21 23 24 26 28 28 26 27 28 25 19 15 15 17 17 17 19 21 22 22 24 23 20 20 30 43 50 48 45 44 45 51 54 55 54 54
15 15 15 14 13 13 12 11 11 12 12 12 11 10 10 9 9 8 7 8 7 8 8 16 46 68 74 77 66 53 45 33 27 26 25 25 28 29 21 18 21 19 15 13 13 11 13 18 17 17 21 20 18 18 18 19 18 18 18 18 20 22 24 25 26 28 27 26 27 26 23 18 16 20 22 22 20 17 17 18 18 22 27 29 26 26 35 47 56 59 57 62 74 76 71 67 63
15 14 14 14 14 14 13 12 12 13 13 13 12 11 10 10 10 8 8 9 8 10 11 17 44 67 76 76 58 42 38 34 32 32 31 30 29 28 25 25 26 21 16 13 12 13 16 17 16 19 20 18 17 18 18 18 17 18 18 18 21 23 25 25 25 26 26 26 26 24 21 19 20 24 25 25 22 20 20 19 19 20 23 29 36 39 41 45 53 61 62 68 78 81 85 86 79
17 16 14 14 14 14 13 12 13 13 14 14 13 11 11 11 10 9 9 10 9 12 13 17 39 66 77 70 54 44 41 38 38 37 35 32 29 29 28 28 27 20 15 14 12 15 17 16 17 20 18 17 17 17 18 18 17 17 17 18 20 22 24 25 25 25 25 25 24 24 22 21 24 25 24 24 22 22 21 22 22 21 20 21 26 33 40 46 50 55 58 62 69 78 88 85 68
19 18 16 15 14 14 12 12 12 13 13 15 15 13 11 12 10 11 11 10 12 13 15 24 46 66 68 60 54 47 43 43 41 38 34 30 28 26 24 25 24 18 15 14 14 17 17 16 18 19 16 17 17 18 18 17 17 17 17 18 20 23 23 24 25 24 24 24 24 24 24 24 25 25 24 24 23 23 23 23 23 22 23 22 21 22 23 29 34 37 42 46 52 58 61 59 47
20 21 20 19 16 15 13 12 12 12 13 14 16 14 12 12 11 12 12 11 14 16 18 30 46 56 57 56 53 45 43 45 41 37 31 26 23 19 19 23 21 17 15 15 17 19 17 17 19 17 16 17 17 18 18 17 17 17 17 18 19 22 23 24 25 24 24 24 25 25 25 26 26 26 25 24 24 23 23 24 24 23 23 23 23 23 21 20 21 22 24 27 29 29 29 33 31
21 21 21 22 20 18 16 14 13 12 12 14 16 16 13 12 11 13 14 11 15 18 20 28 38 47 53 52 46 41 41 44 43 39 32 25 19 14 16 20 20 16 15 18 20 18 17 19 19 16 16 17 17 18 18 18 18 17 17 18 19 22 23 25 24 24 24 24 25 25 26 27 27 26 25 25 25 24 24 24 24 24 24 24 23 23 23 22 22 21 20 20 20 20 19 20 20
19 19 20 24 24 21 19 17 15 14 13 13 15 17 14 12 12 13 14 11 16 22 21 25 31 40 49 47 40 38 38 42 45 43 34 25 18 13 14 18 18 15 17 22 21 18 18 20 18 16 16 17 17 18 18 18 18 17 17 18 20 22 23 24 25 25 24 24 25 25 26 28 27 27 27 27 26 25 26 25 25 25 24 24 24 23 23 22 22 21 20 20 19 19 18 17 17
15 18 20 24 27 25 23 21 18 16 15 13 14 17 16 14 12 13 15 11 15 24 26 26 30 37 44 45 40 36 38 43 48 47 36 24 17 13 13 17 16 15 20 22 20 18 19 21 18 16 16 17 18 19 18 18 17 17 18 18 20 22 23 24 25 25 25 26 26 26 28 29 28 28 28 28 28 27 28 27 27 27 26 25 24 23 23 22 21 20 20 19 19 18 17 17 16
15 19 22 26 29 29 27 25 23 20 17 15 14 16 17 15 13 13 16 14 13 22 30 30 32 38 42 45 42 39 41 45 49 48 34 20 14 11 13 17 14 17 22 19 17 19 21 22 19 16 16 17 18 19 19 18 18 17 17 19 20 22 23 24 25 26 26 27 28 29 30 31 30 30 30 30 30 30 29 29 28 27 26 25 24 24 22 22 21 20 20 19 18 18 17 17 17
15 18 25 30 32 32 31 30 28 24 20 17 15 16 17 17 15 13 16 17 11 15 28 34 38 41 41 42 41 40 43 46 51 46 27 14 11 11 14 14 15 22 23 17 18 20 23 24 20 16 17 17 18 18 19 18 18 18 18 19 22 23 23 24 26 26 27 28 30 31 32 32 33 33 33 33 32 32 30 29 28 27 26 24 23 23 22 21 21 20 20 19 19 18 18 18 18
19 21 29 35 37 36 35 34 32 27 23 21 17 16 17 18 17 15 17 20 15 11 19 31 38 41 42 40 39 40 42 46 50 38 18 9 9 12 14 12 18 26 20 16 20 21 25 26 20 17 17 17 18 18 19 18 17 18 18 20 22 23 23 24 25 26 27 29 31 32 33 34 35 36 36 35 34 33 31 30 28 27 26 24 23 22 21 21 21 20 20 20 19 19 19 18 18
25 30 35 41 43 40 38 38 35 29 26 25 21 17 17 18 19 18 17 20 19 12 12 21 29 35 38 37 37 39 39 46 47 29 12 9 9 12 12 12 20 23 17 18 22 22 26 26 19 17 17 16 17 18 18 18 18 18 18 21 23 23 24 24 25 25 26 28 30 32 33 34 36 37 37 37 35 33 31 29 28 28 26 24 22 21 21 21 21 21 20 20 20 19 19 18 19
29 38 41 45 48 41 38 40 38 31 28 29 25 20 18 17 19 20 17 19 21 15 11 16 21 27 30 31 35 36 37 45 40 19 9 10 10 11 11 17 23 18 16 21 22 24 27 25 19 16 16 16 17 17 18 18 18 18 18 20 22 23 24 25 25 25 26 27 29 31 33 34 35 37 37 36 35 33 31 29 28 27 26 24 23 21 21 21 21 21 21 21 21 21 20 20 20
25 38 44 46 44 37 34 38 39 34 30 33 31 25 21 18 19 22 17 17 22 18 11 14 19 22 25 27 31 34 39 43 30 12 8 10 10 10 15 23 21 14 17 22 22 25 27 24 19 16 15 15 16 17 18 18 18 18 18 19 21 23 24 25 25 25 25 27 28 30 31 32 32 34 34 34 35 33 31 30 28 27 26 25 24 23 22 22 22 23 23 23 23 23 23 23 22
18 30 41 42 36 30 29 32 38 37 32 36 36 30 25 20 19 22 19 16 20 21 13 12 18 21 23 27 30 35 40 36 21 8 7 9 10 12 18 20 16 16 21 23 23 26 27 24 18 16 15 14 15 16 17 18 19 19 19 19 20 21 23 24 25 25 25 27 28 29 29 29 29 30 31 32 33 32 31 30 28 28 27 26 26 25 24 24 24 24 24 24 25 25 25 25 25
12 19 30 32 26 24 24 27 38 43 38 38 40 36 31 26 21 21 21 18 18 21 16 11 16 20 24 29 32 35 36 27 14 6 6 9 10 14 18 16 15 20 23 23 25 27 28 24 17 16 16 15 15 16 16 17 18 19 19 19 19 20 22 24 25 25 25 27 28 28 28 27 27 28 29 30 30 30 30 29 29 28 28 27 27 27 26 26 26 27 27 27 27 28 28 29 28
11 13 17 18 18 20 23 26 37 48 46 42 44 43 37 32 27 22 20 20 18 21 18 11 11 16 18 23 27 28 26 18 9 5 6 8 11 16 18 15 17 23 23 23 23 25 27 23 17 17 16 15 15 15 17 17 17 19 19 20 20 20 20 22 25 26 25 26 28 28 28 26 27 28 28 28 29 29 29 29 29 29 29 28 28 28 28 28 28 29 29 29 30 31 32 33 32
10 10 10 13 13 17 23 24 35 50 49 45 48 49 44 38 32 27 22 20 19 20 20 12 8 10 10 12 15 16 15 11 7 5 6 9 12 17 19 17 20 23 22 22 24 27 27 20 17 18 17 16 16 16 16 17 17 18 18 19 20 20 20 21 23 25 25 25 26 28 28 27 27 27 28 28 28 29 29 29 29 29 29 29 29 29 29 29 30 31 31 32 33 37 41 44 46
11 10 10 12 12 14 19 22 35 49 51 51 53 52 49 43 35 31 27 20 18 21 21 15 9 8 8 7 8 8 8 7 6 5 7 9 13 18 20 18 21 23 22 25 32 32 25 19 18 18 17 17 16 16 16 17 17 18 18 18 19 20 20 20 21 23 25 24 25 26 27 27 26 26 27 28 28 28 28 28 28 28 29 29 29 30 29 32 34 34 34 35 37 40 44 48 52
12 11 11 11 11 12 15 20 31 44 51 56 55 53 53 45 37 36 32 21 18 21 23 18 11 8 8 7 7 6 6 6 6 6 8 10 13 18 20 19 21 22 23 31 39 36 27 21 20 18 17 17 16 16 16 16 17 18 18 18 18 19 20 20 20 21 23 25 25 25 26 27 27 26 26 27 27 26 26 27 27 27 28 29 29 30 30 33 35 35 34 34 35 36 38 41 42
13 14 13 12 11 10 12 15 21 36 53 55 48 50 56 48 41 41 33 22 20 23 23 20 14 10 8 7 7 6 7 7 6 7 9 10 13 18 19 20 22 21 25 34 39 39 34 29 25 21 18 15 15 15 15 16 16 17 18 19 18 18 19 20 20 20 22 23 25 25 26 27 27 27 26 26 26 25 24 25 25 26 27 28 29 29 30 32 34 34 33 33 34 35 36 37 37
16 17 15 12 11 10 11 12 15 29 47 47 40 48 57 51 47 43 31 25 26 24 22 21 20 16 11 8 7 7 7 7 7 8 10 10 13 18 19 20 22 22 25 32 35 38 39 37 33 27 23 19 17 16 15 15 15 16 17 18 19 19 18 19 20 21 21 21 23 24 25 26 26 27 26 25 25 24 24 23 23 24 25 26 28 28 30 31 32 32 32 33 33 35 36 36 37
17 17 15 13 12 11 11 11 12 19 30 32 33 47 57 54 49 42 31 30 33 25 20 22 22 21 17 12 8 7 7 7 8 9 9 10 14 18 20 20 22 23 25 29 32 33 35 38 39 36 34 31 27 23 19 16 15 15 16 17 19 19 19 19 19 19 20 21 21 22 23 24 25 26 26 25 25 24 24 23 23 23 23 25 26 27 29 29 30 31 32 33 34 34 34 35 36
15 15 14 14 14 15 14 13 12 13 17 20 26 42 55 54 53 46 33 34 38 29 22 23 23 22 22 18 12 8 8 7 8 10 9 10 13 17 20 21 22 23 24 27 29 28 28 31 36 39 40 38 35 32 27 21 17 15 15 16 17 19 20 21 20 19 20 20 21 21 21 22 23 24 25 25 25 24 25 25 24 22 22 23 24 25 27 28 29 30 31 33 33 34 35 35 36
16 15 16 18 21 21 18 14 12 11 12 14 19 36 51 53 56 49 34 34 40 37 29 25 24 24 23 23 19 11 8 9 9 10 10 10 12 15 19 21 23 23 24 25 27 27 26 26 31 37 40 40 39 37 33 27 21 16 15 16 16 18 20 21 22 22 21 20 20 21 20 21 21 22 26 29 30 29 28 29 29 26 23 23 25 25 26 27 28 29 31 32 34 35 36 36 36
18 16 19 24 22 18 16 14 13 11 11 12 15 28 40 46 54 51 39 35 39 41 38 30 26 25 23 25 26 19 11 9 10 9 9 10 11 12 15 19 22 23 23 24 25 26 26 25 28 35 38 39 40 39 36 32 25 18 16 17 17 18 19 21 23 24 24 22 21 20 20 21 21 22 27 34 39 40 38 36 33 28 24 23 24 25 25 26 27 28 29 31 34 36 36 36 35
18 17 23 24 17 15 18 18 16 15 15 14 14 20 26 34 46 51 45 39 39 42 44 38 29 26 25 24 27 27 18 10 10 10 8 9 11 11 12 14 18 22 23 24 25 26 27 27 28 33 36 36 36 37 35 32 26 20 18 19 20 21 23 24 25 26 27 26 23 22 21 20 20 21 24 30 38 44 46 44 37 28 23 23 23 24 25 26 27 27 28 30 32 34 35 34 34
17 20 24 20 15 19 23 22 22 25 22 17 15 16 17 22 35 46 47 42 40 41 43 43 36 28 28 26 25 30 27 17 12 11 10 9 10 11 11 11 12 16 20 24 27 28 28 29 30 33 34 34 35 34 31 28 25 21 21 23 25 26 27 27 29 29 29 28 26 24 22 21 21 21 24 28 33 40 46 51 48 34 24 23 23 23 24 25 26 27 27 29 30 32 34 34 35
20 22 22 18 19 26 28 26 28 28 23 18 17 15 13 16 22 32 41 40 36 36 39 42 42 35 31 28 25 27 30 26 18 15 14 13 11 13 15 16 14 13 14 18 23 26 29 30 32 32 33 34 34 31 28 27 27 27 28 30 31 32 32 31 30 29 28 26 25 25 25 23 21 21 24 27 32 40 49 57 58 42 25 22 24 23 24 24 25 27 27 28 29 31 32 35 38
23 22 21 20 24 31 31 27 28 29 25 24 26 22 15 13 14 19 29 34 33 33 34 37 41 41 37 31 26 24 27 29 25 20 18 17 16 16 19 24 25 22 18 16 17 20 25 29 31 31 31 32 32 30 31 32 33 35 37 40 44 48 50 48 45 41 33 25 22 23 24 25 24 23 25 29 34 43 54 63 62 43 24 22 23 23 24 24 25 27 27 28 29 30 31 33 37
25 24 23 23 26 31 30 26 29 32 30 30 31 27 17 13 13 14 18 27 34 36 37 37 38 43 43 36 30 26 24 27 28 25 22 20 20 19 20 25 30 32 30 26 22 20 22 26 29 29 30 31 33 34 37 39 42 47 51 55 60 66 70 70 68 63 53 42 34 31 30 31 29 25 26 31 36 41 53 63 56 37 23 23 24 24 24 24 25 26 26 27 28 30 31 32 35
28 26 24 23 25 28 25 24 28 33 36 34 29 25 22 17 15 15 14 18 28 37 42 44 42 44 46 43 38 32 27 26 27 27 25 22 21 21 21 23 27 33 35 34 31 28 26 27 28 29 31 34 38 41 44 47 49 54 58 60 63 66 71 73 74 72 67 60 53 49 51 51 45 36 32 35 40 40 43 47 41 29 24 24 24 24 24 24 25 26 26 27 29 31 33 34 37
Wind_Speed
24 24 24 22 20 18 16 16 17 18 16 18 19 18 17 13 11 11 14 15 14 15 15 16 16 17 18 19 19 20 20 18 17 17 19 21 22 23 26 28 29 30 30 31 33 34 34 30 26 22 19 19 18 16 15 15 16 17 18 19 19 20 21 21 20 17 14 13 13 13 11 11 14 15 16 15 13 11 10 9 9 9 8 9 10 11 9 7 7 7 6 6 4 4 5 5 4
25 24 24 23 21 18 17 18 20 21 19 20 19 18 19 18 15 13 16 18 16 15 15 15 17 19 19 20 21 22 21 20 19 20 22 23 23 25 27 29 30 32 33 34 35 35 32 28 23 19 18 18 17 15 15 15 16 17 17 17 18 19 18 16 13 11 11 12 12 11 12 15 17 18 18 18 16 15 13 13 13 12 11 11 12 12 10 7 7 8 8 8 6 4 4 4 3
27 26 25 24 22 20 21 21 21 24 22 21 18 18 19 19 19 18 19 21 18 17 16 17 19 21 21 22 23 24 24 22 22 23 24 25 26 27 29 31 33 34 34 35 35 34 30 25 20 18 19 18 16 15 15 15 16 16 16 17 16 15 12 10 9 9 10 11 11 12 15 18 21 22 21 20 19 18 17 17 17 16 15 14 14 13 11 9 8 9 9 9 7 5 4 4 3
28 27 26 25 23 21 25 25 24 23 22 22 20 19 20 18 18 19 20 21 19 18 18 19 20 21 22 24 25 26 25 23 23 25 26 27 28 30 32 34 35 34 35 35 34 30 26 21 18 18 18 17 16 16 16 16 15 15 15 14 12 10 8 7 8 10 11 10 11 14 17 20 22 21 21 20 20 19 19 19 19 18 18 17 17 14 11 9 8 8 8 8 7 6 4 3 2
29 29 28 27 26 26 28 29 27 24 22 22 22 21 22 21 19 19 20 20 20 20 19 18 20 21 23 25 26 26 24 23 24 25 27 28 29 31 33 34 34 34 35 33 30 27 23 19 18 18 17 17 16 16 16 15 14 14 12 10 8 6 6 7 9 10 10 10 12 16 19 20 20 20 20 20 19 19 19 19 19 19 19 20 19 16 13 11 9 7 6 7 7 7 5 4 2
31 31 30 29 29 31 31 29 28 27 26 25 24 24 24 24 23 22 23 23 22 21 20 19 20 21 23 25 25 24 22 23 25 26 27 28 29 31 32 33 33 33 32 30 27 24 22 19 18 17 17 16 16 15 14 13 12 10 8 7 6 5 7 9 10 9 9 10 14 17 19 19 19 20 20 20 19 19 19 19 18 18 19 21 21 19 16 14 11 7 4 5 6 7 6 5 4
34 33 32 32 32 33 32 31 30 29 29 28 27 27 26 26 25 25 25 25 24 23 22 21 22 23 24 24 23 22 23 25 26 26 27 28 29 30 31 31 31 30 28 26 24 23 22 19 17 17 16 15 14 13 12 11 9 7 6 5 5 7 8 10 10 9 8 12 15 17 17 18 19 20 20 21 20 19 19 19 18 19 20 22 22 20 19 17 14 9 5 2 4 5 6 5 5
36 35 35 34 33 33 33 33 31 31 30 29 29 29 29 28 27 26 26 26 25 25 24 24 25 25 25 24 24 25 26 27 27 28 28 28 28 29 29 29 29 28 26 24 23 23 21 18 17 16 16 15 12 11 9 7 5 5 5 4 6 8 9 10 9 8 9 13 15 16 16 17 19 20 21 21 21 20 19 19 19 20 22 23 23 23 22 20 17 12 7 3 1 4 6 6 6
37 37 36 36 35 35 35 34 33 32 31 31 31 31 31 30 29 29 28 28 28 27 26 25 27 28 28 29 30 30 30 30 30 30 28 28 27 27 28 28 27 26 24 23 23 23 20 18 16 16 15 13 10 8 6 4 4 4 5 6 7 8 9 9 8 8 11 13 14 15 15 17 18 20 21 21 21 20 20 20 20 22 24 25 26 26 25 22 20 16 13 9 5 2 3 5 6
39 38 38 37 37 37 36 36 35 34 33 33 33 33 33 32 31 31 30 30 30 29 28 28 29 30 32 33 33 34 33 32 31 29 27 27 26 26 27 26 25 24 22 22 23 22 19 17 15 15 13 10 7 5 3 3 3 5 7 7 8 8 9 9 8 9 11 13 13 14 14 15 17 19 21 22 21 20 19 20 22 24 26 27 29 29 28 25 24 22 20 19 16 12 7 4 2
40 39 39 39 38 38 38 37 36 36 35 35 35 35 34 34 33 32 32 31 31 31 31 31 31 32 33 33 34 35 34 31 29 27 26 25 25 25 25 25 23 22 21 22 22 21 18 16 14 12 10 7 4 3 3 3 5 7 8 8 9 9 10 10 9 10 11 12 13 13 13 14 17 20 21 21 19 19 19 21 23 26 27 29 31 32 31 29 27 25 24 24 23 21 17 13 10
40 40 40 40 39 38 38 38 37 37 37 37 37 36 36 35 35 34 34 34 34 34 33 33 34 34 34 34 34 34 32 29 26 25 25 24 24 25 24 23 22 21 21 22 22 20 17 14 12 10 7 4 2 3 4 5 8 9 9 9 10 11 12 10 9 10 11 12 13 12 12 14 18 20 20 19 18 18 20 22 24 26 28 30 31 33 34 33 30 28 26 26 27 26 24 21 18
40 40 40 40 39 38 38 38 38 38 38 38 38 37 37 37 37 36 36 36 36 36 36 35 35 35 35 34 33 32 29 27 25 25 24 24 23 23 22 22 21 21 21 21 20 18 15 12 9 6 3 2 3 3 6 8 9 10 10 10 12 13 13 11 10 11 12 12 12 12 12 15 18 19 19 18 18 19 21 22 25 27 28 29 31 34 37 37 34 31 28 27 27 27 27 25 24
39 40 40 40 39 38 38 38 39 39 39 39 39 38 38 38 38 38 38 37 37 37 37 36 35 35 34 33 32 29 27 26 25 25 24 23 22 22 22 21 21 21 20 19 18 16 13 9 5 2 2 3 3 6 9 10 10 10 11 12 13 14 14 12 12 12 12 12 11 11 12 15 17 18 19 19 20 21 21 23 25 27 28 29 31 34 37 39 38 35 32 30 28 27 26 25 24
37 38 39 40 39 39 38 39 39 40 40 40 40 40 39 39 39 39 39 38 38 38 37 36 35 34 32 31 29 27 26 25 24 23 22 21 22 22 21 21 20 20 18 16 15 13 9 5 3 3 3 3 5 8 10 11 11 11 12 13 15 15 14 14 13 13 12 11 10 10 13 15 16 18 19 21 21 22 22 23 25 27 28 29 31 33 36 38 39 38 37 35 33 31 29 27 25
34 35 37 38 38 38 39 40 40 40 39 39 40 40 40 39 39 39 38 38 37 37 36 35 33 32 30 27 26 26 25 24 23 22 21 21 21 21 20 19 18 17 15 13 12 10 6 3 3 3 3 4 8 10 11 11 12 12 13 14 15 15 14 14 13 13 12 11 10 12 14 15 17 19 20 22 22 23 23 24 25 26 27 29 31 33 35 37 38 39 38 38 37 35 34 33 31
28 31 33 35 36 37 38 39 39 38 38 38 38 38 38 38 39 38 38 37 36 35 34 33 31 29 27 26 25 25 24 24 23 21 21 20 20 20 18 17 16 14 11 10 9 7 4 3 2 2 4 7 10 11 12 12 13 13 15 15 15 14 14 14 13 12 12 11 12 14 15 17 18 20 21 22 23 23 23 23 24 26 27 28 30 32 34 35 36 37 37 37 37 37 36 36 35
24 25 29 31 32 34 35 36 36 36 36 36 37 37 37 37 37 37 36 35 34 33 32 31 30 28 26 25 25 24 24 23 22 21 20 19 19 17 16 14 13 10 7 7 7 5 4 3 1 3 6 9 11 12 13 13 14 15 15 15 14 14 13 13 13 13 12 13 14 15 16 18 20 21 22 23 23 23 23 23 23 24 25 27 29 30 32 33 34 35 35 36 36 36 36 36 36
21 23 25 27 28 30 31 33 33 34 34 35 35 35 35 35 36 35 34 33 32 31 31 30 29 27 26 25 24 24 23 23 21 20 19 18 17 15 13 11 9 6 4 5 5 4 4 2 1 5 9 11 12 12 14 15 15 15 15 14 13 13 13 13 14 14 14 15 16 16 17 19 21 22 23 23 23 23 23 23 22 22 23 25 26 28 29 31 32 33 33 34 35 35 35 35 35
16 19 22 24 25 26 27 29 30 31 32 33 33 33 34 34 34 33 32 32 32 31 31 30 28 27 26 25 24 24 23 22 20 18 18 17 15 12 10 8 5 2 2 3 4 4 3 1 3 8 10 11 12 14 15 15 15 14 13 13 13 13 14 14 15 15 15 16 16 17 18 20 22 22 22 22 23 23 23 24 23 22 22 22 23 25 26 27 28 30 30 31 32 33 33 34 34
9 13 17 19 21 22 23 25 27 28 29 30 31 31 32 31 31 31 31 32 32 31 30 29 27 26 25 24 24 23 22 20 19 18 17 16 12 10 8 6 3 1 1 2 3 3 2 2 6 10 11 12 14 15 15 14 14 13 13 13 13 14 14 15 15 16 16 16 17 18 20 21 22 22 22 22 22 22 23 23 23 22 21 21 21 21 22 23 25 26 27 28 28 29 30 31 32
6 7 10 13 15 18 20 22 23 24 25 27 28 28 29 29 29 29 30 30 31 30 29 28 26 26 26 26 25 24 23 20 19 18 17 14 10 8 7 4 4 2 1 1 2 2 1 4 9 12 12 13 15 15 14 14 13 13 13 14 14 15 15 15 15 16 16 17 18 19 20 21 21 21 21 21 21 20 20 21 22 21 21 20 19 19 19 20 21 22 23 24 24 25 26 28 29
6 6 7 8 10 13 16 17 18 19 20 21 23 23 24 24 24 24 26 26 27 28 28 28 28 27 26 25 24 23 21 19 19 18 15 11 9 8 6 6 5 3 2 1 1 0 3 7 11 13 13 13 15 15 14 13 13 14 15 15 15 16 16 16 16 16 17 18 19 20 20 20 20 20 20 20 20 20 19 18 19 19 20 20 19 18 18 18 18 19 19 20 21 22 22 24 25
8 7 7 7 7 9 10 11 11 12 13 14 16 17 17 17 17 18 20 22 24 26 27 27 26 23 22 20 20 19 17 17 18 16 12 10 9 8 8 8 6 4 3 2 1 2 6 10 13 14 14 15 15 14 13 13 14 15 16 16 16 16 16 16 17 17 17 18 19 20 20 20 20 20 21 21 21 21 20 18 18 18 19 19 19 19 18 18 17 17 17 18 19 19 19 21 22
11 10 9 9 8 8 8 8 7 7 8 10 12 13 13 13 14 15 17 19 21 23 24 23 21 17 16 16 17 17 16 16 15 12 11 11 10 10 10 9 7 6 4 3 3 5 9 13 14 14 15 16 14 13 13 14 15 16 16 17 17 16 16 17 17 17 18 18 19 20 19 19 20 22 23 23 22 22 21 20 19 19 19 19 19 18 19 19 19 19 18 18 18 17 17 19 20
14 13 12 12 11 10 10 9 8 7 7 9 10 12 13 13 14 14 15 17 19 20 21 20 17 13 12 13 14 15 15 13 12 11 12 12 11 12 12 10 8 7 5 4 4 8 12 15 15 16 16 16 14 14 14 14 15 16 16 16 16 16 16 16 17 18 18 19 19 19 19 20 21 23 24 24 24 23 23 22 22 21 21 20 19 18 18 19 20 20 20 20 19 19 20 20 19
16 15 15 15 14 13 12 11 9 7 7 8 10 11 13 13 13 14 14 16 18 19 20 18 14 12 11 10 10 11 11 11 11 12 12 12 13 13 13 11 9 8 6 6 7 10 14 17 16 17 17 16 15 14 14 15 15 16 16 16 16 16 16 17 18 19 19 19 19 19 19 20 22 24 24 25 25 25 25 25 25 24 23 22 21 19 19 19 20 20 21 21 20 20 22 22 22
17 17 17 17 16 15 15 14 11 9 8 8 10 11 12 13 13 13 13 15 17 18 18 16 12 11 9 7 7 8 10 11 12 12 13 14 14 13 13 12 10 8 7 8 10 13 16 17 18 18 17 16 15 15 15 15 15 15 16 15 15 15 16 17 19 19 20 19 19 19 19 21 22 24 25 25 26 26 26 26 26 26 25 24 23 22 21 20 20 20 21 21 19 20 22 24 24
18 18 18 18 17 18 18 16 13 12 9 8 9 11 12 12 12 13 13 15 16 16 14 11 9 9 7 6 7 9 11 12 12 12 13 14 15 14 13 12 11 9 8 10 13 16 17 18 19 18 17 17 16 15 15 15 15 15 15 15 14 15 16 18 19 19 19 19 19 19 20 21 22 23 24 25 25 26 26 26 26 26 26 25 25 24 24 23 22 21 20 19 20 21 22 23 24
21 19 19 18 19 19 19 17 15 14 11 9 9 10 11 12 12 12 13 14 14 13 9 6 8 7 6 6 8 10 13 13 13 13 13 14 14 14 14 13 12 10 10 13 16 17 18 19 19 18 18 17 17 16 15 15 15 14 14 14 14 15 16 17 18 18 18 18 19 20 20 21 22 22 23 24 25 25 26 26 26 26 26 26 26 25 25 25 24 23 22 21 21 21 21 22 23
24 22 20 19 20 20 21 19 17 16 12 9 9 10 11 11 11 11 11 12 12 9 5 6 8 7 6 7 9 12 14 15 14 14 14 14 14 14 14 14 13 11 13 16 18 19 19 20 19 18 18 18 17 16 15 15 14 14 13 13 13 14 16 17 17 17 17 18 19 20 20 21 21 21 22 23 24 24 25 25 25 25 25 25 26 26 27 27 26 25 25 24 24 24 24 23 23
27 25 23 21 21 21 21 20 18 17 14 10 10 10 10 11 11 10 10 10 9 7 3 6 9 8 7 9 11 13 15 16 15 13 14 15 14 14 15 15 14 13 15 18 19 20 21 21 20 19 18 18 17 16 15 14 14 13 13 12 13 14 15 16 16 16 17 18 19 19 20 20 20 21 21 22 22 23 23 24 24 24 25 25 26 27 27 28 27 27 27 26 26 26 26 26 25
29 27 25 24 23 23 22 21 20 17 15 12 10 10 10 10 10 9 9 8 7 5 4 7 8 9 8 9 11 12 14 16 15 13 13 14 14 14 15 16 16 15 18 20 21 21 22 21 20 19 19 18 17 16 15 14 14 13 13 12 13 13 14 15 15 15 17 18 18 19 20 20 20 20 21 21 22 22 22 23 23 24 24 25 26 27 27 28 28 28 28 28 28 27 27 28 27
30 29 28 27 26 25 23 22 21 18 16 13 11 10 10 10 10 10 9 8 5 3 4 7 8 9 9 9 10 11 13 15 14 12 11 13 14 14 16 17 16 17 20 22 23 23 23 22 20 20 19 18 17 16 15 14 14 13 12 12 12 13 13 14 14 15 16 17 18 19 19 19 20 20 20 21 21 22 22 23 23 23 24 25 26 26 27 28 28 29 29 29 29 29 29 29 29
32 32 30 30 29 27 25 24 23 20 17 14 12 11 10 9 10 11 9 8 5 2 5 7 8 8 9 9 9 10 12 14 14 11 10 13 14 14 17 19 17 19 22 23 24 24 23 22 20 20 19 18 17 16 15 15 14 13 13 12 13 13 13 13 13 14 15 16 17 18 18 19 19 20 20 20 21 22 22 23 23 24 24 25 26 26 27 27 28 29 29 30 30 30 30 30 30
35 34 32 33 32 30 27 26 25 22 18 15 13 12 10 9 10 11 9 8 6 1 5 8 8 8 8 9 9 9 12 14 14 11 8 12 14 15 18 21 20 21 23 24 25 25 23 21 20 20 19 18 17 16 16 15 14 13 13 13 13 13 13 12 12 13 14 15 16 17 17 18 18 19 20 20 21 21 22 23 24 24 25 25 26 27 27 28 28 29 30 30 31 31 32 32 32
37 36 35 35 35 33 30 28 27 24 19 16 15 14 12 10 9 11 10 8 7 3 4 8 9 9 8 8 9 10 12 14 14 10 7 12 16 16 18 22 24 25 25 25 26 26 24 21 21 21 19 18 17 17 16 16 15 14 13 13 13 13 12 12 12 13 14 14 15 15 16 17 17 18 19 19 20 21 21 22 23 24 24 25 25 26 27 28 28 29 30 30 31 32 32 33 33
39 39 39 38 39 37 33 31 30 27 22 18 16 15 14 11 9 11 10 8 7 5 3 7 10 10 9 9 10 11 13 14 13 9 8 12 17 19 19 21 25 26 25 26 26 26 24 22 22 21 20 19 18 17 16 16 15 14 13 13 13 13 12 11 11 12 13 14 14 14 15 15 16 16 17 18 19 19 20 21 22 23 23 24 24 24 25 26 27 28 29 30 31 31 32 33 33
42 43 42 43 44 39 35 33 32 29 25 20 17 17 16 13 10 11 12 9 8 6 3 5 8 10 11 11 11 13 14 14 12 9 9 14 19 21 22 23 25 27 27 27 27 26 24 22 22 21 20 19 18 17 16 16 15 15 13 13 13 12 12 11 11 11 12 13 13 13 13 14 14 15 15 16 17 18 18 19 20 21 22 22 23 23 24 24 25 26 28 29 30 31 32 32 33
45 46 47 48 47 41 37 36 33 31 28 22 20 18 18 16 12 12 14 10 8 7 4 4 6 9 11 12 13 14 15 14 12 10 11 16 20 23 26 27 26 26 27 27 27 26 23 22 22 21 19 18 17 16 16 15 15 14 13 13 13 12 11 10 9 10 11 11 11 12 12 12 13 13 13 14 15 16 17 18 18 19 20 21 22 22 22 23 24 25 26 27 28 29 30 31 32
48 49 52 53 47 41 38 36 34 34 31 26 22 20 20 19 15 14 15 12 10 8 5 4 6 8 11 13 14 15 15 14 12 12 14 18 22 25 29 29 26 26 26 26 27 25 23 22 23 21 19 17 16 15 15 15 14 13 13 12 12 11 10 9 8 9 10 10 10 10 10 11 11 11 12 13 13 14 15 16 16 18 19 19 20 21 21 22 22 23 24 25 26 28 29 29 30
48 50 54 53 46 41 38 36 36 36 34 29 24 22 23 21 18 17 16 13 12 10 6 4 6 9 11 13 14 15 15 14 13 14 17 21 25 28 29 28 26 26 26 27 28 26 24 24 23 21 19 17 15 15 14 14 14 13 12 11 11 11 10 8 7 7 8 9 9 9 8 9 9 10 10 11 11 12 13 14 15 16 17 18 19 20 21 21 22 22 23 23 24 25 27 27 28
46 50 53 50 45 42 40 38 36 36 36 32 27 27 26 24 22 19 17 15 13 11 8 6 7 11 12 14 15 16 16 14 15 17 19 23 27 29 28 26 26 26 26 27 28 26 25 25 24 21 19 17 15 15 14 14 13 12 12 10 10 10 9 8 6 6 6 8 8 7 6 7 8 8 8 8 9 10 11 12 14 15 16 17 18 19 20 20 21 21 21 22 23 24 25 26 27
44 45 46 47 45 43 41 38 36 37 38 34 31 31 29 28 25 21 19 18 15 12 9 7 7 10 12 14 16 17 17 16 17 19 20 25 29 29 28 27 26 26 26 26 25 24 23 24 23 22 20 18 16 15 14 13 13 12 11 10 9 8 8 7 5 4 4 5 6 6 5 5 5 6 6 7 7 8 9 10 12 13 14 15 16 17 18 19 19 20 20 20 22 23 24 25 26
40 40 42 45 45 44 43 40 38 40 39 35 36 35 34 33 28 22 22 21 17 13 10 9 8 8 10 13 16 18 18 18 19 20 22 27 30 30 29 29 28 27 27 26 24 23 23 24 23 22 21 20 18 16 15 14 13 12 11 9 8 7 6 5 4 2 1 2 4 4 3 3 3 4 5 5 6 6 7 8 10 11 12 13 15 16 16 17 18 18 19 19 21 22 23 24 25
36 36 39 42 43 43 43 42 42 42 40 40 42 40 39 36 29 26 26 23 19 15 13 12 10 9 10 11 15 17 18 20 21 21 25 29 30 30 30 29 29 28 28 27 25 24 23 23 23 23 22 21 20 18 17 16 14 13 11 10 8 7 5 4 3 2 0 1 2 2 2 1 2 3 3 4 4 5 6 7 8 9 10 12 13 14 15 15 16 17 18 19 20 21 22 23 24
33 34 37 38 39 40 42 43 44 44 44 46 46 43 41 37 31 31 30 24 18 17 16 15 12 12 11 11 14 16 19 21 21 22 27 30 30 30 30 29 28 29 30 29 27 26 25 24 24 24 23 22 21 20 19 17 16 14 12 11 9 8 6 5 4 2 2 2 3 2 1 1 2 3 4 4 5 5 6 6 7 8 9 10 11 12 13 14 15 16 17 18 19 21 22 23 24
30 32 34 35 35 36 39 42 44 47 50 50 47 44 41 38 35 35 32 24 20 20 20 17 15 14 13 13 14 16 19 21 22 24 28 30 30 30 29 28 28 28 30 29 28 27 26 25 24 23 22 21 20 19 18 17 16 14 13 12 10 9 7 6 5 4 4 4 5 5 4 3 3 4 5 6 7 7 8 8 8 8 8 9 10 11 12 13 14 15 16 17 18 20 21 22 23
30 31 32 31 32 33 36 40 44 49 51 49 46 44 44 42 38 36 32 27 23 23 22 19 18 18 16 16 16 16 19 22 24 26 29 30 30 29 29 29 29 29 29 29 28 27 26 24 23 22 21 20 19 19 18 17 16 15 14 13 11 9 9 8 7 6 6 6 7 7 7 6 6 6 7 8 9 9 10 10 10 10 10 9 9 10 11 12 13 14 16 17 18 19 21 22 23
31 30 29 28 28 29 32 37 42 46 49 48 45 45 47 45 40 37 35 32 28 26 24 22 21 20 19 18 18 17 18 22 25 28 30 29 29 29 30 30 30 30 30 31 30 28 27 25 24 22 21 20 19 18 18 18 18 17 16 14 13 11 10 10 9 8 8 8 9 10 9 9 8 8 8 9 10 11 11 11 12 13 13 12 11 11 11 12 13 14 16 17 18 19 21 22 24
30 27 25 23 23 27 31 34 37 41 45 45 44 47 50 48 44 41 37 35 32 28 26 25 23 22 21 20 20 20 19 21 26 30 31 30 29 29 29 30 30 30 30 31 30 29 28 26 25 24 23 21 19 19 18 18 19 19 18 16 15 14 13 12 12 11 10 11 11 12 12 11 10 10 10 10 11 12 13 13 14 15 15 15 14 13 13 14 14 15 16 18 19 20 22 23 24
30 25 21 21 25 28 29 30 32 35 40 43 46 50 51 50 48 44 39 38 36 32 30 28 27 25 23 21 22 22 22 23 25 29 30 30 30 29 30 30 31 31 31 31 31 30 28 27 27 26 25 23 21 20 19 20 20 20 19 18 17 16 15 15 14 14 14 14 14 14 14 14 13 12 11 11 12 13 14 15 16 17 17 17 17 16 16 17 17 17 17 18 20 22 23 24 25
31 25 24 27 28 25 25 27 28 31 36 42 47 50 52 52 50 47 44 42 39 37 35 32 30 28 25 24 23 23 24 24 25 27 29 29 29 30 30 30 31 31 32 31 30 29 28 29 29 28 27 24 22 22 22 22 22 21 19 19 18 18 17 17 17 17 17 17 17 16 17 17 16 15 13 13 14 14 16 17 17 18 18 18 19 19 19 20 20 20 20 20 22 23 24 25 26
30 27 28 29 24 21 23 26 26 28 34 40 45 49 51 52 53 51 48 45 43 41 39 37 33 30 29 27 25 24 25 25 26 27 28 28 29 30 31 31 32 32 32 32 31 29 29 29 29 29 27 25 24 23 23 22 22 21 20 20 20 19 19 19 19 19 19 19 18 18 18 19 19 18 17 16 17 17 18 19 19 20 20 20 21 21 22 23 23 23 23 23 24 25 26 27 28
30 30 30 26 21 20 23 25 27 29 33 37 40 45 48 52 55 53 49 47 46 43 41 40 36 33 32 31 28 26 26 26 27 27 28 30 30 31 31 31 31 32 32 32 31 30 30 30 29 29 27 26 26 25 23 23 22 22 21 21 20 20 20 19 19 20 20 20 19 19 20 21 22 22 20 20 20 20 20 21 22 22 22 22 23 23 24 25 26 26 26 26 26 27 28 29 30
32 32 29 27 26 25 25 27 27 28 31 33 34 38 44 50 52 51 49 48 46 44 42 40 38 36 34 32 30 28 27 27 28 28 29 30 31 31 31 31 31 31 31 31 31 31 31 31 30 29 28 28 27 25 24 23 23 22 22 21 21 20 20 20 21 21 22 21 20 20 21 22 23 24 24 23 23 23 23 23 23 24 24 24 25 25 26 27 28 29 29 29 29 30 31 31 33
35 33 31 32 32 30 29 29 28 28 31 32 33 35 40 45 48 49 49 48 47 45 43 41 40 38 35 33 32 31 29 28 28 29 30 31 31 31 31 31 31 30 30 30 31 32 33 32 32 30 30 29 28 26 25 25 24 24 23 23 23 23 23 23 24 24 24 24 23 22 22 23 25 26 26 26 26 25 25 24 25 25 26 26 26 27 28 29 30 31 32 32 32 32 33 34 35
39 37 35 35 36 34 32 31 31 31 30 32 34 35 35 38 42 45 47 48 48 48 46 44 43 40 39 37 34 33 32 31 30 30 31 32 32 33 33 32 31 31 31 31 32 33 33 33 32 31 31 31 29 28 27 26 26 26 26 26 26 26 26 26 27 27 27 26 26 26 25 26 27 28 28 28 28 27 26 26 26 27 27 28 28 29 29 30 31 33 35 35 34 34 35 36 37
Wind_Direction
203 204 205 206 208 215 227 234 236 236 235 234 232 235 239 236 240 252 259 260 261 265 269 272 278 286 290 292 296 298 297 296 294 295 300 305 305 306 309 311 312 314 316 318 321 323 323 321 319 316 313 313 311 305 300 305 314 318 316 315 313 313 315 317 320 325 334 348 359 6 18 41 53 55 56 55 53 48 41 38 36 26 10 359 355 355 350 330 312 309 308 312 320 325 323 322 332
207 208 210 212 214 215 227 234 237 236 233 235 231 232 242 242 244 252 262 267 266 267 273 279 287 291 293 296 300 302 301 300 300 301 303 305 304 306 309 310 313 315 317 319 322 324 323 322 319 315 313 313 311 311 315 321 323 321 318 315 314 316 319 324 330 342 357 11 18 28 45 56 60 60 58 56 54 50 45 40 35 30 19 10 6 4 357 339 311 298 297 301 306 312 312 313 328
212 213 215 218 220 221 229 232 237 237 232 236 232 231 244 249 253 260 263 268 270 273 276 281 288 291 293 296 300 302 301 302 302 303 303 303 304 306 308 309 312 314 317 320 323 324 324 322 319 315 313 313 313 318 324 326 325 323 320 318 320 325 330 339 353 9 23 31 37 50 60 64 65 62 60 58 55 52 50 45 41 37 30 24 20 14 1 345 319 299 296 299 301 304 304 314 332
217 218 219 221 222 227 233 233 235 237 233 238 238 236 240 242 247 253 257 262 267 272 276 281 287 289 290 293 295 295 296 300 301 301 302 303 304 306 308 309 311 314 317 320 322 324 324 322 319 315 314 315 317 322 327 327 325 324 324 326 331 338 350 9 26 36 40 44 56 66 68 68 64 61 59 57 56 53 51 47 44 39 34 28 23 18 7 352 332 313 299 295 298 302 303 301 306
218 220 222 224 224 228 233 234 238 242 242 243 244 242 241 240 236 233 242 254 262 270 275 274 277 280 282 284 287 287 290 296 299 300 303 305 306 307 308 310 312 315 318 320 322 324 325 323 319 316 315 316 318 322 325 323 324 327 332 338 347 0 27 45 49 49 48 58 70 73 72 68 63 61 59 57 54 51 49 46 43 38 33 28 25 22 17 8 356 338 308 289 283 283 282 270 252
218 220 222 224 225 231 235 237 242 246 249 249 250 250 249 250 246 239 241 252 263 271 273 267 269 275 275 275 277 281 288 295 299 302 305 307 307 308 310 312 314 317 319 320 322 324 325 322 319 316 315 316 319 322 321 322 327 335 344 352 6 42 63 62 57 53 58 74 78 76 72 68 64 61 57 52 48 46 44 43 39 35 31 28 28 29 27 22 14 1 330 286 269 264 257 248 236
219 221 222 224 227 233 238 240 243 247 250 252 253 254 256 256 256 253 252 258 267 272 275 273 273 275 274 274 278 284 292 297 300 304 307 308 308 310 312 314 317 320 322 321 323 324 324 322 319 317 317 319 320 320 319 325 336 348 359 12 47 76 75 68 59 55 73 84 81 77 73 69 65 58 51 46 42 40 38 38 36 34 32 30 30 31 30 28 26 19 1 305 256 244 236 230 230
220 222 223 225 228 233 238 241 243 246 248 251 254 256 258 260 260 260 262 266 271 273 275 275 273 274 276 281 289 295 299 301 304 307 308 309 310 312 315 317 319 322 322 322 323 323 323 321 318 319 321 321 320 319 325 338 354 5 20 56 82 85 78 68 59 66 87 88 84 80 76 71 63 53 46 39 34 33 32 33 33 33 32 32 32 33 32 33 36 36 32 18 228 212 211 208 215
223 224 225 226 229 233 237 241 243 246 249 252 254 257 259 261 263 265 267 270 272 273 274 273 271 276 283 289 295 299 301 303 305 307 307 309 311 314 316 318 320 321 321 322 323 322 322 320 319 322 324 322 320 327 343 4 15 30 66 88 88 83 76 68 65 83 94 91 88 86 81 71 59 47 36 30 27 26 27 30 32 33 33 35 35 35 35 37 44 49 51 53 58 94 189 200 212
226 226 227 227 229 232 236 240 243 246 249 252 255 258 260 262 264 267 269 272 274 275 275 274 273 277 282 286 291 295 299 301 304 305 306 308 311 313 316 318 319 320 321 322 322 321 321 321 322 324 324 322 328 349 22 36 44 75 92 91 84 80 75 72 79 93 96 93 93 92 85 70 51 36 27 23 22 22 26 31 34 34 35 38 37 37 39 44 53 60 62 62 62 65 75 98 140
230 230 230 230 231 233 236 240 243 246 248 252 255 258 261 264 266 268 270 273 275 276 277 277 278 280 282 284 287 292 296 299 302 305 306 307 309 311 314 316 317 318 320 322 321 321 322 323 324 325 322 327 350 37 57 65 86 97 95 85 80 79 77 78 87 96 98 97 99 95 83 62 39 26 20 18 20 25 31 35 35 36 38 40 40 41 44 51 60 65 68 66 63 66 71 75 76
235 234 234 235 235 235 237 240 243 246 249 252 255 258 261 265 267 269 271 273 274 276 278 280 282 283 285 287 289 291 294 297 301 304 306 306 307 309 311 313 313 315 319 321 320 321 325 326 325 323 323 347 52 75 82 97 102 98 88 81 81 82 81 83 90 96 99 101 101 95 77 49 28 19 18 21 27 35 39 39 38 39 41 43 44 46 50 55 62 67 68 65 63 64 67 68 69
238 238 239 239 239 239 240 242 245 247 250 253 255 258 261 264 266 268 270 273 275 277 279 281 283 285 286 287 289 291 293 295 298 302 305 305 304 306 307 308 309 313 319 320 320 325 328 328 325 325 347 69 95 96 103 107 102 93 84 82 85 85 84 85 91 95 100 102 99 89 63 35 21 20 26 33 40 45 46 43 42 43 44 46 47 49 53 57 61 65 65 63 61 61 61 60 61
239 240 241 242 243 243 243 244 246 248 251 253 256 258 260 262 265 267 269 272 274 276 278 280 282 284 285 286 288 290 291 293 296 301 303 302 302 303 304 303 306 313 319 320 324 330 331 329 331 1 81 108 108 110 111 106 97 89 85 88 89 88 87 88 91 95 98 96 90 73 45 28 25 32 39 44 48 49 48 47 48 48 49 50 50 50 54 57 60 62 62 61 59 57 55 52 51
240 241 243 244 245 245 245 246 247 249 251 253 256 258 260 262 264 266 269 271 273 276 278 280 281 282 284 286 287 288 289 292 296 300 301 300 299 299 299 299 304 313 318 324 331 336 334 339 18 82 110 122 116 115 110 101 93 89 90 93 92 91 90 89 90 91 88 83 74 55 37 33 38 43 46 48 50 51 50 51 52 52 54 54 52 51 53 55 58 59 60 61 59 58 56 53 51
241 242 243 244 245 245 245 247 248 249 251 254 256 258 260 262 264 266 269 271 273 276 278 280 281 282 284 285 285 286 289 292 295 299 300 300 297 295 295 296 304 313 320 331 340 340 345 15 69 100 125 126 120 115 106 96 92 93 96 96 94 93 91 89 87 84 80 72 60 48 44 45 47 47 48 49 50 51 52 55 56 56 57 56 54 53 53 54 55 56 57 58 59 59 58 57 56
243 244 245 245 244 245 246 247 249 250 252 254 255 258 260 262 264 266 268 270 273 275 277 279 281 282 282 283 283 285 287 290 292 295 297 296 294 291 291 295 303 312 323 341 345 343 357 30 67 113 131 126 119 111 102 96 96 99 99 97 95 92 88 85 82 79 74 65 56 52 52 51 50 48 48 49 49 51 54 58 59 59 59 58 56 54 53 53 53 54 53 54 55 56 56 56 56
244 244 245 245 245 245 247 248 249 251 251 253 254 256 258 261 263 265 268 270 273 275 277 278 279 279 280 281 282 283 284 286 288 291 292 291 289 288 287 292 301 310 329 348 344 340 359 17 70 128 130 124 117 107 100 100 101 101 99 97 94 88 84 81 77 74 68 62 59 56 54 52 51 49 49 49 49 52 57 61 62 61 60 59 58 56 55 54 53 53 52 51 51 52 52 52 53
245 243 244 245 245 245 246 248 249 250 252 253 255 257 259 261 263 266 268 270 272 274 275 275 276 276 278 279 279 280 281 282 285 286 286 284 284 283 283 289 296 306 336 349 336 335 355 8 126 132 128 123 113 105 103 103 103 100 99 96 91 85 81 78 75 71 67 63 59 56 54 53 51 50 50 50 51 54 58 62 64 62 60 59 59 58 57 56 55 53 52 50 49 49 48 48 49
250 246 244 244 244 244 245 247 249 251 253 255 256 258 260 262 263 265 267 268 270 271 272 273 275 276 276 277 277 277 278 279 280 280 279 278 277 275 276 280 283 290 338 343 327 336 359 15 143 132 128 120 109 105 106 105 103 100 97 93 88 84 80 78 74 71 68 64 60 56 55 53 51 50 51 51 54 59 61 62 62 60 58 57 58 57 57 57 56 55 53 51 50 48 47 46 46
262 252 247 245 243 243 244 244 246 248 250 253 255 257 259 261 263 265 267 269 270 272 273 275 275 275 275 274 274 274 274 275 274 273 271 270 267 262 262 257 234 205 326 331 321 341 14 156 143 132 128 117 109 108 107 105 101 98 94 91 88 85 81 78 73 69 66 62 59 58 57 54 51 50 50 52 56 62 66 65 64 61 57 55 54 54 55 55 55 55 54 52 50 50 48 47 46
279 265 254 248 243 240 241 243 243 245 248 251 254 256 259 262 265 268 270 272 274 274 274 273 272 271 271 271 271 271 270 269 267 265 264 260 251 244 238 210 175 176 187 303 310 348 133 159 144 133 126 117 113 110 107 102 98 94 92 89 86 84 80 75 70 66 64 62 62 61 59 56 52 51 51 51 55 61 66 67 64 60 56 54 51 50 50 51 52 53 53 52 51 50 49 48 48
285 279 267 254 243 237 237 241 243 245 247 250 254 258 263 267 270 273 274 276 276 275 273 271 269 269 270 270 269 267 266 262 259 257 253 243 229 222 205 172 162 168 167 190 270 170 158 156 144 133 124 119 116 111 106 100 97 94 90 87 84 80 76 71 66 63 63 63 63 64 62 58 55 53 52 53 55 59 63 63 59 55 53 51 48 46 45 46 47 49 50 50 49 49 48 48 48
277 277 274 267 254 243 237 236 239 242 245 248 254 260 265 271 277 280 281 281 279 276 273 270 269 269 269 267 265 262 258 253 250 247 236 217 206 197 177 159 160 163 160 176 196 169 161 154 144 133 126 122 116 110 106 102 99 94 89 85 80 75 71 67 63 63 64 64 65 64 62 60 58 56 55 56 57 58 59 59 56 51 49 47 45 44 45 46 47 47 46 45 45 44 45 47 47
267 267 267 267 263 259 253 244 240 244 252 259 264 269 273 278 282 285 286 285 282 278 273 268 265 263 262 262 261 254 247 245 242 229 211 197 187 176 163 156 158 156 158 172 182 169 160 151 143 134 129 124 116 112 108 104 99 93 88 83 78 73 69 67 65 66 66 66 67 66 64 62 60 58 57 58 59 60 59 57 54 49 45 43 43 44 46 48 50 49 47 46 44 40 40 43 44
263 262 262 262 262 261 260 256 254 256 267 275 281 283 285 287 289 291 293 291 286 280 273 264 255 249 248 254 256 246 238 233 219 202 192 183 171 164 159 157 156 155 162 172 176 169 159 150 142 136 132 125 119 115 110 105 98 92 87 83 78 74 71 69 69 69 69 69 69 68 66 64 61 60 59 59 59 60 59 57 54 51 48 45 43 44 45 46 47 48 47 45 43 39 38 38 38
262 262 262 263 263 262 261 258 257 258 269 280 286 288 289 292 295 298 302 298 292 282 271 258 244 233 232 242 248 236 220 204 191 183 180 171 162 160 160 157 157 157 164 174 171 166 158 150 144 139 133 126 122 118 112 105 98 93 89 84 80 77 74 72 71 73 73 72 72 70 67 65 63 61 60 60 61 60 59 57 55 54 52 49 47 45 45 45 45 45 43 41 39 36 36 38 36
259 261 262 264 265 265 264 262 258 256 261 276 285 289 292 296 300 306 309 306 298 285 271 254 234 220 221 234 234 213 191 180 176 173 172 165 158 161 162 158 158 160 166 174 167 163 159 151 145 140 134 129 125 119 113 106 100 95 90 87 83 79 76 74 74 75 76 75 73 70 68 66 65 63 62 62 62 61 59 56 54 53 52 51 50 48 47 46 46 44 43 41 39 36 36 38 37
257 257 260 263 265 266 265 265 262 258 257 268 282 289 295 301 307 313 316 315 306 289 270 244 214 205 213 224 214 192 177 172 170 171 171 166 160 162 162 158 157 160 171 171 165 163 160 152 146 142 136 132 126 120 115 108 102 97 92 89 85 80 78 77 77 78 78 77 74 71 70 69 67 65 64 64 63 61 59 56 54 52 51 51 51 51 51 50 48 46 46 45 43 40 38 36 35
256 255 257 261 263 265 266 267 267 264 260 264 277 286 294 303 310 318 326 323 310 290 265 209 178 185 202 208 200 187 176 172 171 172 173 167 163 162 160 160 156 160 174 168 163 165 160 153 148 144 139 134 128 122 116 109 103 99 95 91 86 82 80 80 80 80 78 77 75 73 72 71 70 67 65 64 62 61 59 56 54 51 50 50 50 51 52 53 52 50 49 48 47 44 40 37 34
254 255 254 255 259 262 265 267 267 267 266 267 276 284 292 300 308 324 335 328 311 289 247 167 158 167 188 198 198 191 179 174 174 175 174 168 165 162 160 161 156 164 175 166 164 166 160 154 151 147 141 135 129 124 118 111 106 101 98 93 88 83 82 82 82 80 78 76 75 74 73 72 71 68 66 64 62 60 59 57 54 52 50 50 50 50 51 52 53 52 51 50 48 45 43 40 37
248 251 251 251 254 258 262 264 265 266 267 268 274 281 291 299 306 324 340 335 317 292 217 162 156 157 179 198 199 196 185 178 176 178 178 171 163 161 163 162 158 169 173 164 165 166 160 156 153 148 142 134 129 125 120 114 109 105 101 96 90 85 83 83 82 79 77 76 76 75 75 73 72 69 66 64 62 60 59 58 55 52 51 50 50 49 50 51 51 51 51 50 49 46 44 42 40
245 246 249 250 250 253 257 259 261 263 265 263 267 276 286 297 303 318 336 342 329 293 207 167 158 156 172 197 202 199 191 183 179 182 184 177 165 160 166 165 162 172 171 164 167 166 161 158 154 149 142 135 131 128 123 118 113 108 104 99 92 87 85 85 83 80 77 77 76 76 75 74 71 69 67 65 63 62 60 59 56 54 51 50 50 49 49 49 48 48 48 48 48 47 44 42 40
245 244 246 248 249 250 252 255 257 258 260 259 260 267 278 290 299 309 328 347 342 283 214 176 160 157 166 190 201 199 194 188 183 185 191 185 170 163 167 166 166 174 171 165 167 166 162 159 155 150 142 137 134 131 126 120 115 111 107 101 95 90 89 89 86 82 79 78 77 75 75 73 71 69 68 66 65 63 61 60 57 54 53 51 50 49 49 48 47 47 45 45 45 45 44 42 40
245 243 244 247 248 249 250 252 255 254 254 255 255 260 269 282 292 299 315 342 350 258 217 192 169 162 166 181 194 196 196 192 187 188 200 194 173 165 169 164 168 176 170 167 168 165 163 160 156 151 144 140 138 134 130 123 118 115 110 105 99 96 96 94 91 85 81 79 77 76 75 74 72 70 69 68 66 64 61 59 57 55 53 51 50 49 48 47 46 46 44 43 42 41 41 40 39
245 244 243 246 248 249 249 250 252 251 250 252 252 254 260 270 284 292 305 332 345 277 210 201 185 177 173 181 188 193 196 194 191 188 205 203 177 169 173 165 167 174 170 168 168 165 163 161 157 152 146 143 141 137 133 126 121 118 112 107 103 101 101 99 94 87 83 81 78 76 75 74 73 71 70 69 66 63 60 58 56 54 52 51 50 48 47 46 45 44 43 41 40 39 38 38 37
245 244 242 243 245 246 246 248 249 249 247 246 249 250 252 257 272 284 294 318 335 330 216 203 193 190 184 185 188 194 196 193 195 190 201 207 179 170 178 170 166 170 170 169 168 166 164 163 159 154 150 148 144 140 135 128 123 118 113 108 105 104 103 101 97 91 86 83 79 76 74 74 73 71 70 68 65 61 58 56 54 53 51 50 49 47 45 44 43 43 41 40 38 38 37 37 36
242 242 240 240 241 241 242 245 248 248 245 242 246 248 249 248 256 273 280 297 318 329 265 211 198 192 190 189 190 196 195 191 196 192 196 201 178 167 176 172 166 166 169 170 169 167 166 165 162 158 154 151 147 143 136 129 124 118 114 110 107 106 105 103 98 94 89 85 81 78 76 74 73 71 69 66 63 59 56 54 52 52 51 50 48 47 45 43 42 41 40 39 37 36 36 36 35
237 239 238 237 237 236 236 241 245 247 245 241 242 246 248 244 242 259 267 278 299 317 300 235 207 194 191 192 191 195 193 190 196 195 192 194 179 168 169 168 167 167 169 171 170 169 168 167 166 161 158 155 149 144 137 129 123 118 115 112 110 109 106 103 100 94 91 87 83 80 77 75 73 71 68 65 60 56 54 52 51 50 50 49 48 46 45 43 41 40 39 38 36 35 35 34 34
235 235 236 236 235 233 233 236 241 245 244 241 240 242 247 244 235 246 256 264 282 297 292 248 218 201 196 193 193 193 190 190 197 194 186 187 180 170 165 165 169 170 170 171 170 170 170 170 169 165 162 157 151 145 137 129 123 118 116 112 111 109 106 104 100 95 92 89 86 83 79 76 72 69 65 61 57 53 51 50 49 49 49 48 47 46 44 42 40 38 37 36 34 33 33 32 32
235 234 236 236 235 233 233 234 238 242 243 241 239 239 245 245 235 238 248 254 265 279 281 243 217 207 200 196 193 190 189 192 199 194 181 181 180 171 166 164 168 171 172 172 171 171 173 174 173 170 166 160 153 147 138 131 125 120 118 115 113 111 107 105 99 97 94 92 89 84 80 76 71 66 61 57 54 50 48 47 47 47 47 47 46 45 43 42 39 37 36 34 32 31 31 30 29
237 235 237 238 237 235 234 233 235 240 243 241 239 238 240 243 238 235 241 246 252 264 272 247 218 213 206 198 193 189 192 196 200 192 181 180 179 171 165 164 167 171 174 174 173 175 178 178 177 174 170 165 158 151 143 136 131 126 123 121 119 115 111 108 103 98 97 96 92 85 81 76 71 65 59 54 51 48 46 45 44 43 43 44 44 43 42 40 38 36 33 32 30 29 28 27 26
239 238 239 241 240 237 235 233 233 238 242 240 239 238 237 239 238 234 234 238 243 252 262 252 228 222 215 208 201 196 197 200 199 191 181 181 177 169 165 166 168 173 176 176 177 180 182 181 180 178 175 172 166 159 152 146 141 136 133 131 128 125 120 115 109 102 99 99 97 89 80 75 72 67 60 54 50 46 44 42 41 40 39 41 41 40 38 38 36 34 32 29 28 26 25 24 22
242 240 242 242 241 238 235 233 232 235 239 239 239 238 237 235 234 232 232 231 234 240 249 247 236 231 224 216 210 203 198 197 195 189 181 179 176 169 166 168 171 175 178 179 181 184 186 184 183 182 181 180 177 171 165 159 154 148 145 144 140 135 132 127 121 109 98 98 100 96 82 69 70 67 58 52 47 44 41 40 39 37 36 36 37 36 34 34 32 31 28 26 23 21 20 19 17
242 241 241 241 239 237 235 232 230 232 235 236 237 237 236 232 228 229 231 228 225 228 236 236 230 233 228 216 208 201 193 189 190 188 181 178 176 172 171 171 174 177 178 180 183 187 188 188 188 187 188 188 186 182 178 174 167 160 157 156 154 150 144 141 138 128 90 78 90 97 88 59 50 56 54 44 38 37 36 35 35 34 33 32 33 32 29 29 28 27 24 20 17 16 16 15 13
242 240 240 239 237 235 233 230 228 229 230 232 233 233 234 230 225 227 229 223 218 220 228 227 221 222 224 215 204 195 186 182 186 187 180 179 180 177 174 175 176 178 179 182 186 188 189 190 191 192 193 193 192 190 188 185 180 174 170 171 170 167 163 160 161 167 233 350 30 69 83 50 5 12 27 25 18 17 21 25 26 28 28 28 28 28 25 24 24 22 19 16 14 13 13 13 13
241 239 238 238 236 234 232 230 228 227 228 230 230 231 234 231 225 227 226 219 214 218 224 223 219 220 219 215 206 193 183 179 184 188 182 181 183 181 178 178 179 181 183 187 189 190 190 191 192 195 197 197 197 197 195 194 191 185 183 183 185 186 186 182 187 203 241 282 310 334 351 348 324 326 337 346 346 348 354 4 11 15 18 21 23 22 19 17 17 16 14 12 11 10 9 10 9
238 238 238 238 236 234 232 230 228 227 228 229 230 232 236 234 228 228 224 217 216 218 221 221 220 220 218 217 210 195 184 180 184 188 185 185 187 184 181 181 183 187 189 192 194 195 194 194 196 199 201 203 204 204 203 203 201 197 194 196 199 202 205 206 210 223 245 268 287 302 314 319 312 309 315 324 329 333 337 344 352 358 3 8 13 15 12 9 8 9 8 6 6 5 4 4 5
235 237 238 238 236 233 231 229 228 228 229 230 230 232 236 235 232 230 225 220 219 219 219 219 219 219 217 218 214 200 188 182 184 187 188 190 190 188 186 184 186 190 193 197 200 202 202 201 203 204 207 209 210 211 211 212 212 209 206 207 210 215 222 225 229 236 250 265 278 290 302 311 316 314 313 317 322 327 330 334 339 343 347 352 358 1 1 359 358 0 1 359 359 358 357 358 359
235 235 238 238 235 232 229 227 227 228 230 231 229 231 235 236 234 231 226 222 221 219 218 219 220 219 217 218 217 208 195 187 184 186 189 193 193 194 192 189 190 193 196 200 204 207 208 209 209 210 213 216 216 217 217 217 219 218 216 217 219 223 231 237 241 244 253 264 274 283 293 302 310 315 316 316 319 323 325 330 334 337 338 340 344 347 348 348 349 351 353 352 352 351 351 352 353
237 234 235 234 228 226 226 226 226 227 229 230 229 230 233 235 234 231 227 224 222 221 220 219 220 220 217 216 216 210 201 192 189 187 189 193 196 199 198 196 196 197 199 203 207 211 213 214 216 216 218 221 223 224 224 223 223 223 223 224 225 227 233 241 246 250 254 260 267 276 285 291 299 307 313 316 318 321 321 324 328 332 334 334 335 337 337 337 338 341 344 345 345 345 345 347 348
234 228 220 218 222 226 227 227 226 226 227 228 227 228 230 232 233 231 229 227 224 221 221 220 219 220 218 215 214 211 205 198 195 192 192 193 196 201 203 202 202 203 204 206 209 212 215 217 219 219 220 223 226 228 229 228 228 226 227 229 230 232 236 242 247 251 254 258 263 270 277 283 289 294 301 307 313 316 316 318 322 325 329 329 330 331 331 330 330 332 336 338 339 339 339 341 344
229 220 205 212 225 225 221 222 222 222 224 224 225 227 227 229 231 230 227 227 225 222 220 219 218 219 219 217 213 211 208 204 201 200 199 199 200 203 206 207 207 208 209 210 212 214 216 219 220 221 223 226 229 230 230 230 230 231 232 234 236 238 241 245 248 251 254 257 261 266 271 277 282 285 290 297 301 304 308 312 317 320 323 324 325 326 327 326 325 326 328 330 332 333 334 336 339
228 217 208 216 223 214 210 213 212 216 221 221 223 226 225 226 229 228 225 225 225 223 220 219 217 217 220 220 214 211 210 208 206 206 207 208 208 208 209 210 211 213 213 214 215 216 219 221 223 224 227 230 233 233 231 231 231 233 236 239 242 243 245 246 249 251 254 256 259 263 268 272 277 281 287 291 294 298 301 304 310 315 317 318 319 321 323 323 323 323 323 325 327 328 330 332 334
226 220 214 214 209 199 199 203 204 211 219 221 224 226 225 226 228 228 225 225 226 225 223 220 217 216 219 220 217 212 210 210 210 211 212 214 214 214 213 213 213 215 217 217 218 220 223 225 226 228 231 234 235 235 234 233 233 234 237 240 242 245 247 248 250 252 253 254 256 261 266 270 275 280 285 289 293 296 298 299 303 309 313 314 315 317 319 319 320 320 320 321 323 325 327 329 329
220 220 213 206 200 193 193 197 200 209 216 219 221 223 224 226 229 229 227 226 227 228 227 224 220 219 220 222 221 218 214 211 212 214 217 219 219 218 217 217 217 217 219 219 221 223 225 227 229 230 231 233 235 236 236 236 236 237 239 241 244 248 251 253 255 256 257 257 257 259 263 269 273 277 281 286 290 294 297 297 298 303 308 310 312 313 315 316 317 317 317 319 321 324 325 326 326
217 216 208 202 199 194 193 194 194 202 212 216 218 221 223 226 228 229 228 226 226 228 230 229 226 224 224 223 223 222 220 216 215 215 217 220 221 221 219 219 220 220 220 220 222 224 225 226 228 229 230 232 232 233 235 237 239 241 244 247 250 252 254 257 259 260 262 262 262 262 264 268 271 274 277 281 286 290 293 294 295 299 303 306 308 310 311 312 314 314 314 316 319 321 323 325 324
214 212 206 201 197 196 196 195 194 198 207 215 219 220 222 225 228 229 229 227 225 225 227 228 228 226 225 224 222 223 223 221 220 219 218 220 222 222 222 220 221 222 223 223 224 225 226 226 227 228 229 231 231 233 235 238 241 245 248 252 254 256 257 259 260 262 264 265 266 267 267 268 269 271 274 277 281 285 288 290 293 296 299 302 304 306 307 309 311 311 312 315 317 318 320 323 323